This demonstration page uses our WeatherBlox Daily Observations layout. Learn more.

Hourly Observations for April 13, 2019

Temp ( °F °C ) Dew Point ( °F °C ) Humidity (%) Winds ( mph kmh ) Pressure ( in mb ) Visibility ( mi km ) Precip ( " mm )
12:15 am 00:15 Clear 29 -1.5 26 -3.3 88 88 Calm 30.17 1022 10 16.0934 0 0
12:35 am 00:35 Clear 29 -1.7 26 -3.3 89 89 NNW 3 6 30.18 1022 10 16.0934 0 0
12:55 am 00:55 Clear 28 -2.2 26 -3.3 92 92 NNW 3 6 30.19 1022 10 16.0934 0 0
1:15 am 01:15 Clear 29 -1.8 26 -3.5 88 88 NW 3 6 30.18 1022 10 16.0934 0 0
1:35 am 01:35 Clear 28 -2.3 26 -3.6 91 91 WNW 3 6 30.19 1022 10 16.0934 0 0
1:55 am 01:55 Clear 28 -2 26 -3.6 89 89 NW 5 7 30.18 1022 10 16.0934 0 0
2:15 am 02:15 Clear 28 -2.2 25 -4 88 88 WNW 3 6 30.18 1022 10 16.0934 0 0
2:35 am 02:35 Clear 27 -2.6 25 -4 90 90 NW 6 9 30.18 1022 10 16.0934 0 0
2:55 am 02:55 Clear 28 -2.4 25 -4.1 88 88 WNW 3 6 30.18 1022 10 16.0934 0 0
3:15 am 03:15 Clear 28 -2.5 25 -4 90 90 W 3 6 30.18 1022 10 16.0934 0 0
3:35 am 03:35 Clear 29 -1.8 26 -3.4 89 89 SW 5 7 30.18 1022 10 16.0934 0 0
3:55 am 03:55 Clear 28 -2.2 26 -3.5 91 91 SW 3 6 30.2 1023 10 16.0934 0 0
4:15 am 04:15 Clear 28 -2 26 -3.2 92 92 Calm 30.2 1023 10 16.0934 0 0
4:35 am 04:35 Clear 28 -2 26 -3.5 90 90 SW 5 7 30.21 1023 10 16.0934 0 0
4:55 am 04:55 Clear 27 -2.6 25 -3.8 92 92 SW 3 6 30.22 1023 10 16.0934 0 0
5:15 am 05:15 Mostly Cloudy 28 -2.5 25 -3.7 92 92 WNW 3 6 30.22 1023 10 16.0934 0 0
5:35 am 05:35 Cloudy 28 -2 26 -3.4 90 90 WNW 5 7 30.2 1023 10 16.0934 0 0
5:55 am 05:55 Cloudy 28 -2.2 26 -3.3 92 92 W 5 7 30.21 1023 10 16.0934 0 0
6:15 am 06:15 Mostly Cloudy 28 -2.4 26 -3.4 93 93 WNW 6 9 30.21 1023 10 16.0934 0 0
6:35 am 06:35 Partly Cloudy 27 -2.7 26 -3.6 94 94 NW 9 15 30.19 1022 10 16.0934 0 0
6:55 am 06:55 Partly Cloudy 29 -1.9 26 -3.2 91 91 NW 7 11 30.15 1021 10 16.0934 0 0
7:15 am 07:15 Partly Cloudy 28 -2.1 26 -3.3 92 92 WNW 5 7 30.2 1023 10 16.0934 0 0
7:35 am 07:35 Mostly Cloudy 30 -1.3 27 -3 88 88 WNW 3 6 30.21 1023 10 16.0934 0 0
7:55 am 07:55 Cloudy 30 -1.2 27 -2.6 90 90 Calm 30.22 1023 10 16.0934 0 0
8:15 am 08:15 Cloudy 31 -0.7 28 -2.4 88 88 W 3 6 30.23 1024 10 16.0934 0 0
8:35 am 08:35 Cloudy 32 -0.1 28 -2.1 87 87 NW 3 6 30.22 1023 7 11.26538 0 0
8:55 am 08:55 Cloudy 32 0 29 -1.7 88 88 WNW 3 6 30.23 1024 10 16.0934 0 0
9:15 am 09:15 Cloudy 32 0.2 30 -1.1 91 91 NW 5 7 30.21 1023 10 16.0934 0 0
9:35 am 09:35 Cloudy 34 1.2 30 -1 85 85 NW 7 11 30.2 1023 10 16.0934 0 0
9:55 am 09:55 Cloudy 35 1.8 31 -0.4 86 86 NW 6 9 30.2 1023 10 16.0934 0 0
10:15 am 10:15 Partly Cloudy 38 3.1 32 -0.2 79 79 NW 6 9 30.2 1023 10 16.0934 0 0
10:35 am 10:35 Mostly Cloudy 39 3.7 31 -0.5 74 74 NNW 9 15 30.19 1022 10 16.0934 0 0
10:55 am 10:55 Partly Cloudy 40 4.5 31 -0.5 70 70 NNW 7 11 30.2 1023 10 16.0934 0 0
11:15 am 11:15 Sunny 41 5.1 30 -0.9 66 66 N 9 15 30.21 1023 10 16.0934 0 0
11:35 am 11:35 Sunny 41 4.8 31 -0.5 69 69 N 12 19 30.2 1023 10 16.0934 0 0
11:55 am 11:55 Sunny 42 5.4 34 0.9 73 73 N 10 17 30.19 1023 10 16.0934 0 0
12:15 pm 12:15 Sunny 43 6.2 33 0.5 67 67 N 9 15 30.18 1022 10 16.0934 0 0
12:35 pm 12:35 Sunny 44 6.9 32 0.2 63 63 N 9 15 30.17 1022 10 16.0934 0 0
12:55 pm 12:55 Sunny 45 7.3 31 -0.6 58 58 NNE 6 9 30.18 1022 10 16.0934 0 0
1:15 pm 13:15 Sunny 46 7.8 30 -1 54 54 NNE 7 11 30.17 1022 10 16.0934 0 0
1:35 pm 13:35 Partly Cloudy 47 8.1 30 -1 53 53 ENE 6 9 30.16 1021 10 16.0934 0 0
1:55 pm 13:55 Sunny 47 8.2 29 -1.6 50 50 NE 8 13 30.15 1021 10 16.0934 0 0
2:15 pm 14:15 Sunny 47 8.2 29 -1.5 51 51 ENE 7 11 30.14 1021 10 16.0934 0 0
2:35 pm 14:35 Partly Cloudy 47 8.5 29 -1.7 49 49 NE 6 9 30.13 1020 10 16.0934 0 0
2:55 pm 14:55 Partly Cloudy 48 9.1 31 -0.7 51 51 N 6 9 30.11 1020 10 16.0934 0 0
3:15 pm 15:15 Sunny 49 9.3 31 -0.5 51 51 NE 7 11 30.1 1019 10 16.0934 0 0
3:35 pm 15:35 Sunny 48 9 31 -0.7 51 51 NE 5 7 30.09 1019 10 16.0934 0 0
3:55 pm 15:55 Sunny 48 9.1 31 -0.7 51 51 ENE 7 11 30.08 1019 10 16.0934 0 0
4:15 pm 16:15 Partly Cloudy 49 9.4 32 -0.2 51 51 N 9 15 30.08 1019 10 16.0934 0 0
4:35 pm 16:35 Sunny 49 9.6 32 -0.1 51 51 E 8 13 30.08 1018 10 16.0934 0 0
4:55 pm 16:55 Partly Cloudy 49 9.4 30 -0.9 49 49 E 5 7 30.07 1018 10 16.0934 0 0
5:15 pm 17:15 Partly Cloudy 49 9.5 31 -0.8 49 49 NE 8 13 30.07 1018 10 16.0934 0 0
5:35 pm 17:35 Partly Cloudy 49 9.4 30 -1.3 48 48 N 5 7 30.06 1018 10 16.0934 0 0
5:55 pm 17:55 Sunny 49 9.5 31 -0.7 49 49 NNE 6 9 30.06 1018 10 16.0934 0 0
6:15 pm 18:15 Sunny 49 9.5 30 -1.2 48 48 NE 8 13 30.06 1018 10 16.0934 0 0
6:35 pm 18:35 Sunny 49 9.3 30 -1.2 48 48 ENE 10 17 30.07 1018 10 16.0934 0 0
6:55 pm 18:55 Sunny 48 9 29 -1.4 48 48 ENE 7 11 30.07 1018 10 16.0934 0 0
7:15 pm 19:15 Sunny 47 8.5 30 -1.2 51 51 ENE 8 13 30.08 1018 10 16.0934 0 0
7:35 pm 19:35 Sunny 46 7.8 30 -1 54 54 E 8 13 30.08 1019 10 16.0934 0 0
7:55 pm 19:55 Sunny 44 6.5 32 0 64 64 E 7 11 30.09 1019 10 16.0934 0 0
8:15 pm 20:15 Partly Cloudy 42 5.4 32 0 68 68 ENE 7 11 30.1 1019 10 16.0934 0 0
8:35 pm 20:35 Mostly Cloudy 40 4.5 32 0 73 73 ENE 6 9 30.1 1019 10 16.0934 0 0
8:55 pm 20:55 Mostly Cloudy 38 3.6 32 0 78 78 ENE 7 11 30.11 1020 10 16.0934 0 0
9:15 pm 21:15 Partly Cloudy 37 3 31 -0.4 79 79 ENE 8 13 30.12 1020 10 16.0934 0 0
9:35 pm 21:35 Clear 37 2.5 31 -0.7 80 80 ENE 7 11 30.13 1020 10 16.0934 0 0
9:55 pm 21:55 Clear 35 1.8 30 -1 82 82 ENE 8 13 30.14 1021 10 16.0934 0 0
10:15 pm 22:15 Clear 34 1 30 -1 87 87 NE 5 7 30.14 1021 10 16.0934 0 0
10:35 pm 22:35 Clear 35 1.4 30 -1.3 82 82 ENE 6 9 30.13 1020 10 16.0934 0 0
10:55 pm 22:55 Clear 33 0.8 29 -1.6 84 84 ENE 8 13 30.13 1020 10 16.0934 0 0
11:15 pm 23:15 Clear 33 0.7 29 -1.6 85 85 ENE 8 13 30.13 1020 10 16.0934 0 0
11:35 pm 23:35 Clear 33 0.5 29 -1.7 85 85 ENE 6 9 30.11 1020 10 16.0934 0 0
11:55 pm 23:55 Clear 33 0.5 29 -1.9 84 84 E 5 7 30.1 1019 10 16.0934 0 0

Powered by AerisWeather